Notices

What's New in latest Release from April 7th, 2021:

- Updated Glossary, including Speed of Maximum Gust, and Total Hourly Precipitation

- Updated national and regional climate services offices contacts and prices information

- Addition of station inventory lists for 1981-2010, 1971-2000, and 1961-1990 Normals.

If you haven't already, please take our survey and provide feedback about our website: https://eccc.sondage-survey.ca/f/LanguageSelection.aspx?s=442ca660-fcf1-47c0-95a9-59707d6fd709

Hourly Data Report for October 17, 2019

SAINT JOHN A
NEW BRUNSWICK
Current Station Operator: NAVCAN

45°18'58.000" N
65°53'24.000" W
108.80 m
8104901
71609
YSJ

Download Data

Hourly Data (October 2019)
Hourly Data Report for October 17, 2019
TIME
LST
Temp Definition
°C
Dew Point Definition
°C
Rel Hum Definition
%
Precip. Amount Definition
mm

Wind Dir Definition
10's deg

Wind Spd Definition
km/h
Visibility Definition
km
Stn Press Definition
kPa
Hmdx Definition


Wind Chill Definition


Weather Definition


00:00 8.0 4.3 77   12 14 24.1 99.92     LegendNANA
01:00 8.4 4.0 74   12 11 24.1 99.82     LegendNANA
02:00 9.2 5.1 76   8 13 24.1 99.61     Cloudy
03:00 9.8 6.4 80   9 23 24.1 99.44     LegendNANA
04:00 9.6 6.8 82   12 37 24.1 99.22     LegendNANA
05:00 9.7 6.7 81   11 42 24.1 98.97     Cloudy
06:00 9.8 7.1 83   9 41 24.1 98.82     LegendNANA
07:00 9.4 7.9 90   7 37 16.1 98.52     Rain
08:00 9.6 8.8 94   9 36 4.8 98.43     Rain
09:00 10.1 9.3 95   8 41 8.1 98.07     Rain
10:00 11.0 10.0 94   9 56 8.1 97.73     Rain
11:00 10.9 10.1 95   9 42 4.8 97.65     Moderate Rain
12:00 11.9 11.4 96   9 35 2.4 97.45     Rain,Fog
13:00 13.2 12.6 96   20 22 4.8 97.49     Rain,Fog
14:00 12.4 11.5 95   21 26 4.8 97.50     Rain,Fog
15:00 12.2 10.4 89   19 30 8.1 97.48     Rain,Fog
16:00 12.2 9.8 85   18 23 16.1 97.50     Rain
17:00 11.6 8.6 81   18 24 16.1 97.52     Mostly Cloudy
18:00 11.5 7.9 78   18 30 16.1 97.52     LegendNANA
19:00 11.0 8.8 86   17 17 12.9 97.55     LegendNANA
20:00 11.1 8.5 84   16 18 12.9 97.55     Cloudy
21:00 11.0 8.3 83   15 16 12.9 97.56     LegendNANA
22:00 10.6 8.8 89   13 19 16.1 97.52     Rain Showers
23:00 10.5 8.9 90   14 22 16.1 97.47     Rain Showers

Notes on Data Quality.

Legend

  • E = Estimated
  • M = Missing
  • NA = Not Available*
  • [empty] = Indicates an unobserved value
Date modified: